GFSNW_prec_kuchsnow_135.txt.gz
Snowfall_Accumulation
0.0 0.0 0.0 0.0 0.0 0.0 0.0 0.0 7.6 0.0 0.0 7.6 4.4 2.9 0.1 0.0 0.0 0.0 0.0 1.1 2.9 4.7 4.7 4.1 7.9 3.5 0.3 0.0 0.0 0.0 0.0 0.8 0.3 0.0 0.0 0.0 0.0 0.0 0.1 4.1 2.6 5.5 12.4 18.1
0.0 0.0 0.0 0.0 0.0 0.0 0.0 2.3 3.3 0.0 0.0 13.3 3.8 0.2 0.1 0.0 0.0 0.0 0.0 0.4 1.8 3.2 5.3 7.6 4.7 2.4 0.0 0.0 0.0 0.0 0.1 0.1 0.8 0.5 0.0 0.0 0.0 0.0 0.0 0.5 2.4 12.4 16.7 19.8
0.0 0.0 0.0 0.0 0.0 0.0 0.0 0.5 17.8 3.8 2.6 1.1 0.9 0.9 0.2 0.4 0.0 0.1 0.0 0.3 1.5 2.8 3.0 0.6 3.5 3.8 0.0 0.0 0.0 0.0 0.0 0.4 2.1 5.0 3.4 1.3 1.9 0.7 0.2 1.6 11.8 8.4 6.3 7.1
0.0 0.0 0.0 0.0 0.0 0.0 0.0 3.9 8.7 0.0 11.6 4.9 2.0 2.1 2.9 3.8 3.2 0.2 0.1 0.8 0.7 1.1 3.6 1.4 1.5 0.7 0.0 0.0 0.0 0.0 0.0 3.2 2.5 2.3 3.0 1.2 1.9 5.6 3.1 2.1 3.0 4.9 7.8 4.4
0.0 0.0 0.0 0.0 0.0 0.0 0.0 25.7 2.2 0.0 0.5 0.0 0.9 2.2 4.3 2.8 0.0 0.6 0.2 0.0 0.2 0.0 0.6 0.9 0.6 0.2 0.3 0.8 0.0 0.0 0.0 5.5 5.7 4.8 3.2 1.1 5.1 6.9 3.4 2.4 3.7 4.5 2.8 3.5
0.0 0.0 0.0 0.0 0.0 0.0 0.0 0.0 0.0 0.0 0.0 0.1 1.4 1.2 0.5 0.8 0.2 0.1 0.0 0.0 0.0 0.0 0.0 0.0 0.0 0.0 0.0 0.0 0.0 0.0 0.4 1.7 3.2 4.1 0.8 0.6 3.9 9.4 5.8 2.7 1.0 1.1 0.5 1.9
0.0 0.0 0.0 0.0 0.0 0.0 0.0 0.0 0.1 2.1 5.0 0.6 0.0 0.1 0.0 0.0 0.0 0.0 0.0 0.0 0.0 0.0 0.0 0.0 0.0 0.0 0.0 0.0 0.0 0.0 0.4 0.9 1.1 1.7 1.6 8.7 5.7 1.3 0.5 0.2 0.4 0.4 0.1 0.8
0.0 0.0 0.0 0.0 0.0 0.0 0.0 0.0 0.0 0.9 3.8 0.1 0.4 0.1 0.2 0.0 0.0 0.0 0.0 0.0 0.0 0.0 0.0 0.1 0.4 0.0 0.0 0.0 0.0 0.0 0.0 0.4 3.5 5.7 2.1 3.8 1.4 0.8 0.5 0.5 1.1 0.6 0.6 0.6
0.0 0.0 0.0 0.0 0.0 0.0 0.0 0.0 0.0 0.1 4.6 1.3 0.0 0.1 0.0 0.3 0.1 0.1 0.0 0.0 0.0 0.0 0.0 0.7 2.1 1.7 0.1 0.4 0.1 0.0 0.0 0.1 2.7 5.8 5.3 4.7 1.1 0.3 0.0 0.0 1.3 0.4 0.2 0.3
0.0 0.0 0.0 0.0 0.0 0.0 0.0 0.0 0.0 0.0 9.4 0.0 0.0 0.0 0.1 0.0 0.0 0.4 0.0 0.0 0.0 0.0 1.1 2.4 0.9 1.1 0.0 1.2 0.4 0.7 1.4 1.0 5.2 4.1 3.3 0.7 0.1 0.5 0.2 1.7 3.3 0.4 0.1 0.1
0.0 0.0 0.0 0.0 0.0 0.0 0.0 0.0 0.0 0.0 4.0 0.0 0.0 0.0 0.0 0.0 0.0 1.1 0.0 0.9 0.9 2.0 2.6 0.8 0.3 0.4 0.0 1.3 0.1 0.5 0.1 1.8 1.3 2.2 5.5 3.2 0.2 0.8 1.3 1.3 0.5 0.2 0.2 0.1
0.0 0.0 0.0 0.0 0.0 0.0 0.0 0.0 0.0 0.0 0.4 0.0 0.0 0.0 0.0 0.0 0.0 0.0 0.0 1.6 1.2 0.3 1.4 0.5 0.1 0.3 0.3 0.1 5.6 0.0 3.7 0.9 1.2 1.4 2.8 1.7 0.9 1.4 0.6 0.2 0.3 0.5 0.3 0.1
0.0 0.0 0.0 0.0 0.0 0.0 0.0 0.0 0.0 0.0 3.8 0.0 0.0 0.0 0.0 0.0 0.0 0.0 1.2 0.0 0.0 1.5 1.5 1.2 1.0 1.3 0.0 1.3 1.2 0.6 2.1 0.0 4.6 4.5 4.0 2.0 1.3 0.8 0.3 0.4 1.7 1.2 0.3 0.7
0.0 0.0 0.0 0.0 0.0 0.0 0.0 0.0 0.0 0.0 0.5 6.5 0.9 0.0 0.0 0.0 0.0 0.0 0.0 0.0 0.0 0.0 0.0 1.2 1.4 0.6 0.0 1.1 0.9 0.2 1.3 1.6 3.5 6.8 3.8 1.5 1.7 2.0 1.3 1.1 0.7 0.5 0.2 0.1
0.0 0.0 0.0 0.0 0.0 0.0 0.0 0.0 0.0 0.0 0.0 4.3 0.9 0.0 0.0 0.0 0.0 0.0 0.0 0.0 0.0 0.0 0.8 1.8 0.5 0.0 0.1 0.1 0.9 2.2 0.7 2.6 6.2 9.2 6.5 4.9 5.6 4.0 3.0 3.3 2.3 1.0 0.8 0.5
0.0 0.0 0.0 0.0 0.0 0.0 0.0 14.4 0.0 0.0 0.0 1.9 3.9 0.0 0.0 0.0 0.0 0.0 0.0 0.0 0.0 0.0 0.7 0.9 0.2 0.0 0.1 1.9 5.0 3.5 3.2 1.7 1.6 3.6 3.7 7.1 7.3 4.4 2.3 2.3 1.0 0.1 0.0 0.0
0.0 0.0 0.0 0.0 0.0 0.0 0.2 1.9 0.0 0.0 0.0 4.4 5.0 0.7 0.0 0.0 0.0 0.0 0.0 0.0 0.0 0.0 0.5 0.6 0.0 0.0 0.0 2.7 2.4 1.2 0.8 0.4 0.2 0.2 0.2 1.2 0.7 0.7 0.0 0.0 0.0 0.0 0.0 0.0
0.0 0.0 0.0 0.0 0.0 0.0 0.0 0.0 0.0 0.0 0.0 0.2 7.8 3.2 1.2 0.0 0.0 0.4 0.0 0.0 0.0 0.0 0.2 0.0 0.1 0.0 0.4 8.7 1.0 0.0 0.0 0.0 0.0 0.0 0.0 0.0 0.0 0.0 0.0 0.0 0.0 0.0 0.0 0.0
0.0 0.0 0.0 0.0 0.0 1.3 0.0 0.0 0.0 0.0 0.0 4.3 4.0 1.8 7.3 0.0 0.1 0.0 0.3 0.0 3.1 0.0 1.8 0.2 0.1 3.8 13.1 8.9 1.8 0.8 0.2 0.0 0.0 0.0 0.0 0.0 0.1 0.1 0.0 0.6 0.6 0.1 0.6 2.1
0.0 0.0 0.1 25.7 0.0 0.0 0.0 0.0 5.7 2.4 0.2 0.0 0.8 0.2 3.2 0.0 0.5 1.2 1.7 0.3 1.0 3.5 0.7 0.0 3.5 8.2 3.1 0.7 0.2 0.7 0.7 1.3 0.5 0.3 0.2 0.8 0.8 0.9 1.5 1.9 2.4 2.8 3.1 3.5
0.0 14.5 11.0 0.0 0.0 0.0 1.7 17.6 15.4 5.8 6.6 0.3 0.2 0.0 0.4 0.0 5.4 1.1 0.2 3.6 1.1 3.8 2.3 2.9 7.7 8.1 4.8 0.5 0.0 0.0 0.1 0.4 0.7 1.0 1.2 1.3 1.1 1.3 1.6 2.7 1.6 2.2 2.4 2.9
0.0 0.0 0.0 0.0 5.1 8.6 9.8 11.4 5.0 2.8 2.3 0.2 0.3 0.1 0.0 0.0 0.5 4.5 1.2 5.3 7.8 10.3 3.2 6.6 9.4 6.0 1.7 0.5 0.4 0.3 0.4 0.1 0.1 0.3 0.4 0.8 1.1 1.3 1.4 2.0 2.4 3.1 3.7 4.7
0.0 2.4 8.5 6.5 14.3 19.0 13.3 10.8 3.7 4.5 2.7 2.1 0.7 1.5 0.2 0.2 5.6 8.8 4.6 6.5 10.9 3.6 11.9 12.6 8.9 4.1 1.6 1.6 0.9 0.9 0.8 0.9 0.8 1.4 1.5 1.5 1.7 2.4 2.9 3.9 6.0 6.1 7.3 10.3
7.1 17.9 21.2 12.5 10.0 8.2 7.9 4.7 3.3 3.5 4.1 3.4 1.2 0.7 1.2 2.3 8.4 17.7 15.8 12.7 4.0 11.3 11.7 8.7 7.3 6.6 5.6 3.7 3.1 2.9 5.1 5.3 5.3 6.1 6.4 7.1 7.4 8.9 9.1 9.3 10.1 8.2 10.2 12.9
10.3 5.6 12.2 8.9 8.4 6.1 5.9 4.2 3.5 3.6 5.3 4.0 2.0 2.7 2.5 6.5 12.1 11.9 9.8 8.6 8.7 6.6 10.4 10.2 9.3 6.9 5.9 5.7 5.5 5.8 6.6 7.3 7.6 8.2 7.7 8.9 9.1 7.1 9.8 10.3 9.3 7.3 8.1 8.6
3.2 6.0 12.2 6.7 5.7 7.1 7.3 6.5 6.7 3.6 6.1 3.8 3.2 5.2 6.2 9.6 9.1 8.5 10.4 5.9 9.8 10.9 8.5 8.5 7.9 8.0 8.5 9.1 9.1 9.6 9.6 8.9 8.4 8.1 7.7 7.5 7.6 6.8 7.5 7.4 6.7 7.0 5.7 6.1
3.4 11.9 12.4 11.6 9.0 12.1 12.5 10.1 8.2 5.1 3.6 5.2 2.3 4.0 7.1 3.9 5.8 8.2 8.5 14.6 14.0 11.4 11.3 10.4 9.9 10.0 10.6 10.2 10.0 10.5 9.2 7.8 7.3 7.0 6.6 6.4 5.9 4.5 3.1 4.4 6.1 4.2 3.4 2.8

GFSNW_prec_kuchsnow_138.txt.gz
Snowfall_Accumulation
0.0 0.0 0.0 0.0 0.0 0.0 0.0 0.0 7.6 0.0 0.0 7.6 4.4 2.9 0.1 0.0 0.0 0.0 0.0 1.1 2.9 4.7 4.7 4.1 7.9 3.5 0.3 0.0 0.0 0.0 0.0 0.8 0.3 0.0 0.0 0.0 0.0 0.0 0.1 4.1 2.6 6.2 12.8 18.1
0.0 0.0 0.0 0.0 0.0 0.0 0.0 2.3 3.3 0.0 0.0 13.3 3.8 0.2 0.1 0.0 0.0 0.0 0.0 0.4 1.8 3.2 5.3 7.6 4.7 2.4 0.0 0.0 0.0 0.0 0.1 0.1 0.8 0.5 0.0 0.0 0.0 0.0 0.0 0.5 2.4 12.4 16.7 19.8
0.0 0.0 0.0 0.0 0.0 0.0 0.0 0.5 17.8 3.8 2.6 1.1 0.9 0.9 0.2 0.4 0.0 0.1 0.0 0.3 1.5 2.8 3.0 0.6 3.5 3.8 0.0 0.0 0.0 0.0 0.0 0.4 2.1 5.0 3.4 1.3 1.9 0.7 0.2 1.6 12.0 8.4 6.3 7.1
0.0 0.0 0.0 0.0 0.0 0.0 0.0 3.9 8.7 0.0 11.6 4.9 2.0 2.1 2.9 3.8 3.2 0.2 0.1 0.8 0.7 1.1 3.6 1.4 1.5 0.7 0.0 0.0 0.0 0.0 0.0 3.2 2.5 2.3 3.0 1.2 1.9 5.6 3.1 2.1 3.0 5.0 7.8 4.4
0.0 0.0 0.0 0.0 0.0 0.0 0.0 25.7 2.2 0.0 0.5 0.0 0.9 2.2 4.3 2.8 0.0 0.6 0.2 0.0 0.2 0.0 0.6 0.9 0.6 0.2 0.3 0.8 0.0 0.0 0.0 5.5 5.7 4.8 3.2 1.1 5.1 6.9 3.4 2.4 3.7 4.5 2.8 3.5
0.0 0.0 0.0 0.0 0.0 0.0 0.0 0.0 0.0 0.0 0.0 0.1 1.4 1.2 0.5 0.8 0.2 0.1 0.0 0.0 0.0 0.0 0.0 0.0 0.0 0.0 0.0 0.0 0.0 0.0 0.4 1.7 3.2 4.1 0.8 0.6 3.9 9.4 5.8 2.7 1.0 1.1 0.5 1.9
0.0 0.0 0.0 0.0 0.0 0.0 0.0 0.0 0.1 2.1 5.0 0.6 0.0 0.1 0.0 0.0 0.0 0.0 0.0 0.0 0.0 0.0 0.0 0.0 0.0 0.0 0.0 0.0 0.0 0.0 0.4 0.9 1.1 1.7 1.6 8.8 5.7 1.3 0.5 0.2 0.4 0.4 0.1 0.8
0.0 0.0 0.0 0.0 0.0 0.0 0.0 0.0 0.0 1.0 3.8 0.1 0.4 0.1 0.2 0.0 0.0 0.0 0.0 0.0 0.0 0.0 0.0 0.1 0.4 0.0 0.0 0.0 0.0 0.0 0.0 0.4 3.5 6.1 2.1 3.8 1.4 0.8 0.5 0.5 1.1 0.6 0.6 0.6
0.0 0.0 0.0 0.0 0.0 0.0 0.0 0.0 0.0 0.1 4.6 1.3 0.0 0.1 0.0 0.3 0.1 0.1 0.0 0.0 0.0 0.0 0.0 0.7 2.3 1.7 0.1 0.4 0.1 0.0 0.0 0.1 2.7 5.8 5.8 5.1 1.1 0.3 0.0 0.0 1.3 0.4 0.2 0.3
0.0 0.0 0.0 0.0 0.0 0.0 0.0 0.0 0.0 0.0 9.9 0.0 0.0 0.0 0.1 0.0 0.0 0.4 0.0 0.0 0.0 0.0 1.1 2.4 0.9 1.2 0.0 1.2 0.4 0.7 1.4 1.0 5.2 4.1 4.4 0.7 0.1 0.5 0.2 1.7 3.3 0.4 0.1 0.1
0.0 0.0 0.0 0.0 0.0 0.0 0.0 0.0 0.0 0.0 5.2 0.0 0.0 0.0 0.0 0.0 0.0 1.1 0.0 0.9 0.9 2.0 2.6 0.8 0.3 0.4 0.0 1.3 0.1 0.5 0.1 1.8 1.3 2.4 6.1 3.4 0.2 0.8 1.3 1.3 0.5 0.2 0.2 0.1
0.0 0.0 0.0 0.0 0.0 0.0 0.0 0.0 0.0 0.0 0.4 0.0 0.0 0.0 0.0 0.0 0.0 0.0 0.0 1.6 1.2 0.3 1.4 0.5 0.1 0.3 0.3 0.1 5.6 0.0 3.7 0.9 1.2 1.4 2.8 1.7 0.9 1.4 0.6 0.2 0.3 0.5 0.3 0.1
0.0 0.0 0.0 0.0 0.0 0.0 0.0 0.0 0.0 0.0 3.8 0.0 0.0 0.0 0.0 0.0 0.0 0.0 1.2 0.0 0.0 1.5 1.5 1.5 1.2 1.4 0.0 1.3 1.2 0.6 2.1 0.0 4.6 4.5 4.0 2.0 1.3 0.8 0.3 0.4 1.7 1.2 0.3 0.7
0.0 0.0 0.0 0.0 0.0 0.0 0.0 0.0 0.0 0.0 0.5 6.5 0.9 0.0 0.0 0.0 0.0 0.0 0.0 0.0 0.0 0.0 0.0 1.3 1.4 0.9 0.0 1.1 0.9 0.2 1.3 1.6 3.5 6.8 3.8 1.5 1.7 2.0 1.3 1.1 0.7 0.5 0.2 0.1
0.0 0.0 0.0 0.0 0.0 0.0 0.0 0.0 0.0 0.0 0.0 4.4 0.9 0.0 0.0 0.0 0.0 0.0 0.0 0.0 0.0 0.0 0.8 2.2 0.8 0.0 0.1 0.1 0.9 2.2 0.7 2.6 6.5 9.2 6.5 4.9 5.6 4.0 3.0 3.3 2.3 1.0 0.8 0.5
0.0 0.0 0.0 0.0 0.0 0.0 0.0 16.7 0.0 0.0 0.0 1.9 3.9 0.0 0.0 0.0 0.0 0.0 0.0 0.0 0.0 0.0 0.7 1.1 0.2 0.0 0.1 2.4 5.0 3.5 3.2 1.7 1.6 3.6 3.7 7.1 7.3 4.4 2.3 2.3 1.0 0.1 0.0 0.0
0.0 0.0 0.0 0.0 0.0 0.0 0.8 2.3 0.0 0.0 0.0 4.7 5.2 0.7 0.0 0.0 0.0 0.0 0.0 0.0 0.0 0.0 0.5 0.6 0.1 0.0 0.0 3.1 2.4 1.2 0.8 0.4 0.2 0.2 0.2 1.2 0.7 0.7 0.0 0.0 0.0 0.0 0.0 0.0
0.0 0.0 0.0 0.0 0.0 0.0 0.1 0.0 0.0 0.0 0.0 0.2 8.9 3.2 1.2 0.0 0.1 0.4 0.0 0.0 0.0 0.0 0.2 0.0 0.2 0.1 0.6 9.2 1.0 0.0 0.0 0.0 0.0 0.0 0.0 0.0 0.0 0.0 0.0 0.0 0.0 0.0 0.0 0.0
0.0 0.0 0.0 0.0 0.0 2.0 0.0 0.0 0.0 0.0 0.0 4.3 4.0 2.4 7.3 0.0 0.1 0.0 0.3 0.0 3.8 0.0 2.3 0.3 0.1 3.9 13.2 8.9 1.8 0.8 0.2 0.0 0.0 0.0 0.0 0.0 0.1 0.1 0.0 0.6 0.6 0.1 0.6 2.1
0.0 0.0 1.0 28.2 0.6 0.0 0.0 0.0 8.0 5.4 0.6 0.0 0.8 0.2 3.2 0.0 0.5 1.2 1.7 0.8 1.3 3.9 0.8 0.0 3.5 8.2 3.1 0.7 0.2 0.7 0.7 1.3 0.5 0.3 0.2 0.8 0.8 0.9 1.5 1.9 2.4 2.8 3.1 3.5
0.0 17.1 12.7 0.0 0.0 0.0 1.7 19.2 18.6 5.8 7.8 0.3 0.2 0.0 0.4 0.0 5.9 1.3 0.2 3.9 1.3 4.0 2.3 2.9 7.7 8.1 4.8 0.5 0.0 0.0 0.1 0.4 0.7 1.0 1.2 1.3 1.1 1.3 1.6 2.7 1.6 2.2 2.4 2.9
0.0 0.0 0.0 0.0 5.1 9.4 9.8 11.4 5.0 4.7 2.5 0.2 0.3 0.1 0.0 0.0 0.5 4.8 1.5 5.5 7.8 10.3 3.2 6.6 9.4 6.0 1.7 0.5 0.4 0.3 0.4 0.1 0.1 0.3 0.4 0.8 1.1 1.3 1.4 2.0 2.4 3.1 3.7 4.7
0.0 2.6 8.5 7.2 15.7 20.2 13.3 10.8 4.3 5.8 2.7 2.1 0.7 1.5 0.2 0.2 5.6 9.0 4.8 6.6 10.9 3.6 11.9 12.6 8.9 4.1 1.6 1.6 0.9 0.9 0.8 0.9 0.8 1.4 1.5 1.5 1.7 2.4 2.9 3.9 6.0 6.1 7.3 10.3
7.1 18.5 21.2 12.5 10.7 8.2 7.9 4.7 3.3 3.5 4.1 3.4 1.2 0.7 1.2 2.3 8.4 17.7 15.8 12.7 4.0 11.4 11.7 8.7 7.3 6.6 5.6 3.7 3.1 2.9 5.1 5.3 5.3 6.1 6.4 7.1 7.4 8.9 9.1 9.3 10.1 8.2 10.2 12.9
10.4 5.6 12.2 8.9 8.4 6.1 5.9 4.2 3.5 3.6 5.3 4.0 2.0 2.7 2.5 6.5 12.1 11.9 9.8 8.6 8.7 6.6 10.4 10.2 9.3 6.9 5.9 5.7 5.5 5.8 6.6 7.3 7.6 8.2 7.7 8.9 9.1 7.1 9.8 10.3 9.3 7.3 8.1 8.6
3.2 6.0 12.3 6.7 5.7 7.1 7.3 6.5 6.7 3.6 6.1 3.8 3.2 5.2 6.2 9.9 9.1 8.5 10.4 5.9 9.8 10.9 8.5 8.5 7.9 8.0 8.5 9.1 9.1 9.6 9.6 8.9 8.4 8.1 7.7 7.5 7.6 6.8 7.5 7.4 6.7 7.0 5.7 6.1
3.4 11.9 12.4 11.7 9.0 12.1 12.5 10.1 8.2 5.1 3.6 5.2 2.3 4.0 7.1 3.9 5.8 8.2 8.5 14.6 14.0 11.4 11.3 10.4 9.9 10.0 10.6 10.2 10.0 10.5 9.2 7.8 7.3 7.0 6.6 6.4 5.9 4.5 3.1 4.4 6.1 4.2 3.4 2.8

GFSNW_prec_kuchsnow_144.txt.gz
Snowfall_Accumulation
0.0 0.0 0.0 0.0 0.0 0.0 0.0 0.0 7.6 0.0 0.0 7.6 4.4 2.9 0.1 0.0 0.0 0.0 0.0 1.1 2.9 4.7 4.7 4.1 7.9 3.5 0.3 0.0 0.0 0.0 0.0 0.8 0.3 0.0 0.0 0.0 0.0 0.0 0.1 4.2 2.7 6.4 12.9 18.1
0.0 0.0 0.0 0.0 0.0 0.0 0.0 2.3 3.3 0.0 0.0 13.6 3.9 0.2 0.1 0.0 0.0 0.0 0.0 0.4 1.8 3.2 5.3 7.6 4.7 2.4 0.0 0.0 0.0 0.0 0.1 0.1 0.8 0.5 0.0 0.0 0.0 0.0 0.0 0.5 2.4 12.4 16.9 19.8
0.0 0.0 0.0 0.0 0.0 0.0 0.0 0.5 17.8 3.8 2.6 1.1 0.9 0.9 0.2 0.4 0.0 0.1 0.0 0.3 1.5 2.8 3.0 0.6 3.5 3.8 0.0 0.0 0.0 0.0 0.0 0.4 2.1 5.0 3.4 1.3 1.9 0.7 0.2 1.7 12.5 8.4 6.3 7.1
0.0 0.0 0.0 0.0 0.0 0.0 0.0 3.9 8.7 0.0 11.7 4.9 2.0 2.1 2.9 3.8 3.2 0.2 0.1 0.8 0.7 1.1 3.6 1.4 1.5 0.7 0.0 0.0 0.0 0.0 0.0 3.2 2.5 2.3 3.0 1.2 1.9 5.6 3.1 2.1 3.0 5.0 7.8 4.4
0.0 0.0 0.0 0.0 0.0 0.0 0.0 25.7 2.2 0.0 0.5 0.0 0.9 2.2 4.3 2.8 0.0 0.6 0.2 0.0 0.2 0.0 0.6 0.9 0.6 0.2 0.3 0.8 0.0 0.0 0.0 5.5 5.7 4.8 3.2 1.1 5.1 6.9 3.4 2.4 3.7 4.5 2.8 3.5
0.0 0.0 0.0 0.0 0.0 0.0 0.0 0.0 0.0 0.0 0.0 0.1 1.4 1.2 0.5 0.8 0.2 0.1 0.0 0.0 0.0 0.0 0.0 0.0 0.0 0.0 0.0 0.0 0.0 0.0 0.4 1.7 3.2 4.1 0.8 0.6 3.9 9.4 5.8 2.7 1.0 1.1 0.5 1.9
0.0 0.0 0.0 0.0 0.0 0.0 0.0 0.0 0.1 2.1 5.0 0.6 0.0 0.1 0.0 0.0 0.0 0.0 0.0 0.0 0.0 0.0 0.0 0.0 0.0 0.0 0.0 0.0 0.0 0.0 0.4 0.9 1.1 1.7 1.6 8.8 5.7 1.3 0.5 0.2 0.4 0.4 0.1 0.8
0.0 0.0 0.0 0.0 0.0 0.0 0.0 0.0 0.0 1.0 3.8 0.1 0.4 0.1 0.2 0.0 0.0 0.0 0.0 0.0 0.0 0.0 0.0 0.1 0.4 0.0 0.0 0.0 0.0 0.0 0.0 0.4 3.6 6.5 2.2 3.8 1.4 0.8 0.5 0.5 1.1 0.6 0.6 0.6
0.0 0.0 0.0 0.0 0.0 0.0 0.0 0.0 0.0 0.1 4.6 1.3 0.0 0.1 0.0 0.3 0.1 0.1 0.0 0.0 0.0 0.0 0.0 0.7 2.3 1.7 0.1 0.4 0.1 0.0 0.0 0.1 2.8 6.1 6.4 5.1 1.1 0.3 0.0 0.0 1.3 0.4 0.2 0.3
0.0 0.0 0.0 0.0 0.0 0.0 0.0 0.0 0.0 0.0 10.8 0.0 0.0 0.0 0.1 0.0 0.0 0.4 0.0 0.0 0.0 0.0 1.1 2.4 0.9 1.2 0.0 1.2 0.4 0.7 1.4 1.0 5.3 4.2 4.9 0.7 0.1 0.5 0.2 1.9 3.3 0.4 0.1 0.1
0.0 0.0 0.0 0.0 0.0 0.0 0.0 0.0 0.0 0.0 5.9 0.0 0.0 0.0 0.0 0.0 0.0 1.1 0.0 0.9 0.9 2.0 2.6 0.8 0.3 0.4 0.0 1.3 0.1 0.5 0.1 1.8 1.3 2.4 6.5 3.4 0.2 0.8 1.3 1.3 0.5 0.2 0.2 0.1
0.0 0.0 0.0 0.0 0.0 0.0 0.0 0.0 0.0 0.0 0.4 0.0 0.0 0.0 0.0 0.0 0.0 0.0 0.0 1.6 1.2 0.3 1.4 0.5 0.1 0.3 0.3 0.1 5.6 0.0 3.7 0.9 1.2 1.4 2.8 1.7 0.9 1.4 0.6 0.2 0.3 0.5 0.3 0.1
0.0 0.0 0.0 0.0 0.0 0.0 0.0 0.0 0.0 0.0 3.8 0.0 0.0 0.0 0.0 0.0 0.0 0.0 1.2 0.0 0.0 1.5 1.5 1.5 1.7 1.9 0.0 1.3 1.2 0.6 2.1 0.0 4.6 4.5 4.0 2.0 1.3 0.8 0.3 0.4 1.7 1.2 0.3 0.7
0.0 0.0 0.0 0.0 0.0 0.0 0.0 0.0 0.0 0.0 0.5 6.6 0.9 0.0 0.0 0.0 0.0 0.0 0.0 0.0 0.0 0.0 0.0 1.3 1.6 1.1 0.0 1.1 0.9 0.2 1.3 1.6 3.5 6.8 3.8 1.5 1.7 2.0 1.3 1.1 0.7 0.5 0.2 0.1
0.0 0.0 0.0 0.0 0.0 0.0 0.0 0.0 0.0 0.0 0.0 4.9 0.9 0.0 0.0 0.0 0.0 0.0 0.0 0.0 0.0 0.0 0.8 2.2 1.0 0.0 0.1 0.1 0.9 2.2 0.7 2.6 6.5 9.2 6.5 4.9 5.6 4.0 3.0 3.3 2.3 1.0 0.8 0.5
0.0 0.0 0.0 0.0 0.0 0.0 0.0 19.4 0.0 0.0 0.0 2.1 4.0 0.0 0.0 0.0 0.0 0.0 0.0 0.0 0.0 0.0 0.8 1.2 0.2 0.0 0.1 2.7 5.0 3.5 3.2 1.7 1.6 3.6 3.7 7.1 7.3 4.4 2.3 2.3 1.0 0.1 0.0 0.0
0.0 0.0 0.0 0.0 0.0 0.0 0.8 3.4 0.0 0.0 0.0 4.8 5.5 0.7 0.0 0.0 0.0 0.0 0.0 0.0 0.0 0.0 0.5 0.7 0.1 0.0 0.0 3.4 2.4 1.2 0.8 0.4 0.2 0.2 0.2 1.2 0.7 0.7 0.0 0.0 0.0 0.0 0.0 0.0
0.0 0.0 0.0 0.0 0.0 0.0 0.1 0.0 0.0 0.0 0.0 0.2 9.2 3.2 1.2 0.0 0.1 0.5 0.0 0.1 0.0 0.0 0.2 0.0 0.2 0.1 0.7 9.7 1.0 0.0 0.0 0.0 0.0 0.0 0.0 0.0 0.0 0.0 0.0 0.0 0.0 0.0 0.0 0.0
0.0 0.0 0.0 0.0 0.0 3.4 0.0 0.0 0.0 0.0 0.0 4.5 4.1 2.4 7.3 0.0 0.1 0.0 0.5 0.0 4.6 0.0 2.5 0.4 0.1 3.9 13.5 8.9 1.8 0.8 0.2 0.0 0.0 0.0 0.0 0.0 0.1 0.1 0.0 0.6 0.6 0.1 0.6 2.1
0.0 0.0 1.7 30.6 1.4 0.0 0.0 1.0 10.2 6.9 0.7 0.0 0.8 0.2 3.2 0.0 0.5 1.2 1.7 0.9 1.8 4.8 0.9 0.0 4.0 8.2 3.1 0.7 0.2 0.7 0.7 1.3 0.5 0.3 0.2 0.8 0.8 0.9 1.5 1.9 2.4 2.8 3.1 3.5
0.0 20.8 13.3 0.0 0.0 0.0 3.1 22.1 20.0 6.5 9.6 0.3 0.2 0.0 0.4 0.0 6.1 1.6 0.3 4.6 1.5 4.5 2.3 3.1 7.9 8.1 4.8 0.5 0.0 0.0 0.1 0.4 0.7 1.0 1.2 1.3 1.1 1.3 1.6 2.7 1.6 2.2 2.4 2.9
0.0 0.0 0.0 0.0 5.2 10.4 11.4 12.1 5.1 4.7 2.6 0.2 0.3 0.1 0.0 0.0 0.5 4.8 2.2 6.2 8.4 11.0 3.2 7.0 9.5 6.0 1.7 0.5 0.4 0.3 0.4 0.1 0.1 0.3 0.4 0.8 1.1 1.3 1.4 2.0 2.4 3.1 3.7 4.7
0.0 2.8 9.0 7.3 15.7 20.9 13.7 11.1 4.4 5.8 2.7 2.1 0.7 1.5 0.2 0.2 5.6 9.0 6.4 8.8 11.9 3.6 12.0 12.6 8.9 4.1 1.6 1.6 0.9 0.9 0.8 0.9 0.8 1.4 1.5 1.5 1.7 2.4 2.9 3.9 6.0 6.1 7.3 10.3
7.1 18.6 21.2 12.5 10.7 8.3 7.9 4.7 3.3 3.5 4.1 3.4 1.2 0.7 1.2 2.3 8.4 17.8 16.1 13.1 4.0 11.8 11.8 8.7 7.3 6.6 5.6 3.7 3.1 2.9 5.1 5.3 5.3 6.1 6.4 7.1 7.4 8.9 9.1 9.3 10.1 8.2 10.2 12.9
10.4 6.0 12.2 8.9 8.4 6.1 5.9 4.2 3.5 3.6 5.3 4.0 2.0 2.7 2.5 6.5 12.4 11.9 9.9 8.6 8.7 6.6 10.4 10.2 9.3 6.9 5.9 5.7 5.5 5.8 6.6 7.3 7.6 8.2 7.7 8.9 9.1 7.1 9.8 10.3 9.3 7.3 8.1 8.6
3.3 6.2 12.3 6.7 5.7 7.1 7.3 6.5 6.7 3.6 6.1 3.8 3.2 5.7 6.5 10.1 9.1 8.5 10.4 5.9 9.8 10.9 8.5 8.5 7.9 8.0 8.5 9.1 9.1 9.6 9.6 8.9 8.4 8.1 7.7 7.5 7.6 6.8 7.5 7.4 6.7 7.0 5.7 6.1
3.8 12.3 12.4 11.7 9.0 12.1 12.5 10.1 8.2 5.1 3.6 5.2 2.3 4.1 7.1 3.9 5.8 8.2 8.5 14.6 14.0 11.4 11.3 10.4 9.9 10.0 10.6 10.2 10.0 10.5 9.2 7.8 7.3 7.0 6.6 6.4 5.9 4.5 3.1 4.4 6.1 4.2 3.4 2.8

GFSNW_prec_kuchsnow_147.txt.gz
Snowfall_Accumulation
0.0 0.0 0.0 0.0 0.0 0.0 0.0 0.0 7.6 0.0 0.0 7.6 4.4 3.0 0.1 0.0 0.0 0.0 0.0 1.1 2.9 4.7 4.7 4.1 7.9 3.5 0.3 0.0 0.0 0.0 0.0 0.8 0.3 0.0 0.0 0.0 0.0 0.0 0.1 4.2 2.7 6.4 13.0 18.1
0.0 0.0 0.0 0.0 0.0 0.0 0.0 2.3 3.3 0.0 0.0 13.8 3.9 0.2 0.1 0.0 0.0 0.0 0.0 0.4 1.8 3.2 5.3 7.6 4.7 2.4 0.0 0.0 0.0 0.0 0.1 0.1 0.8 0.5 0.0 0.0 0.0 0.0 0.0 0.5 2.4 12.4 17.0 19.8
0.0 0.0 0.0 0.0 0.0 0.0 0.0 0.5 17.9 3.8 2.6 1.1 0.9 0.9 0.2 0.4 0.0 0.1 0.0 0.3 1.5 2.8 3.0 0.6 3.5 3.8 0.0 0.0 0.0 0.0 0.0 0.4 2.1 5.0 3.4 1.3 1.9 0.7 0.2 1.7 12.5 8.4 6.3 7.1
0.0 0.0 0.0 0.0 0.0 0.0 0.0 3.9 8.7 0.0 11.9 5.0 2.0 2.1 2.9 3.8 3.2 0.2 0.1 0.8 0.7 1.1 3.6 1.4 1.5 0.7 0.0 0.0 0.0 0.0 0.0 3.2 2.5 2.3 3.0 1.2 1.9 5.6 3.1 2.1 3.0 5.0 7.8 4.4
0.0 0.0 0.0 0.0 0.0 0.0 0.0 25.7 2.2 0.0 0.5 0.0 0.9 2.2 4.3 2.8 0.0 0.6 0.2 0.0 0.2 0.0 0.6 0.9 0.6 0.2 0.3 0.8 0.0 0.0 0.0 5.5 5.7 4.8 3.2 1.1 5.1 6.9 3.4 2.4 3.7 4.5 2.8 3.5
0.0 0.0 0.0 0.0 0.0 0.0 0.0 0.0 0.0 0.0 0.0 0.1 1.4 1.2 0.5 0.8 0.2 0.1 0.0 0.0 0.0 0.0 0.0 0.0 0.0 0.0 0.0 0.0 0.0 0.0 0.4 1.7 3.2 4.1 0.8 0.6 3.9 9.4 5.8 2.7 1.0 1.1 0.5 1.9
0.0 0.0 0.0 0.0 0.0 0.0 0.0 0.0 0.1 2.1 5.0 0.6 0.0 0.1 0.0 0.0 0.0 0.0 0.0 0.0 0.0 0.0 0.0 0.0 0.0 0.0 0.0 0.0 0.0 0.0 0.4 0.9 1.1 1.7 1.6 8.8 5.7 1.3 0.5 0.2 0.4 0.4 0.1 0.8
0.0 0.0 0.0 0.0 0.0 0.0 0.0 0.0 0.0 1.0 3.8 0.1 0.4 0.1 0.2 0.0 0.0 0.0 0.0 0.0 0.0 0.0 0.0 0.1 0.4 0.0 0.0 0.0 0.0 0.0 0.0 0.4 3.6 6.5 2.2 3.8 1.4 0.8 0.5 0.5 1.1 0.6 0.6 0.6
0.0 0.0 0.0 0.0 0.0 0.0 0.0 0.0 0.0 0.1 4.6 1.3 0.0 0.1 0.0 0.3 0.1 0.1 0.0 0.0 0.0 0.0 0.0 0.7 2.3 1.7 0.1 0.4 0.1 0.0 0.0 0.1 2.8 6.1 6.5 5.1 1.1 0.3 0.0 0.0 1.3 0.4 0.2 0.3
0.0 0.0 0.0 0.0 0.0 0.0 0.0 0.0 0.0 0.0 10.8 0.0 0.0 0.0 0.1 0.0 0.0 0.4 0.0 0.0 0.0 0.0 1.1 2.4 0.9 1.2 0.0 1.2 0.4 0.7 1.4 1.0 5.3 4.2 5.0 0.7 0.1 0.5 0.2 1.9 3.4 0.4 0.1 0.1
0.0 0.0 0.0 0.0 0.0 0.0 0.0 0.0 0.0 0.0 5.9 0.0 0.0 0.0 0.0 0.0 0.0 1.1 0.0 0.9 0.9 2.0 2.6 0.8 0.3 0.4 0.0 1.3 0.1 0.5 0.1 1.8 1.4 2.4 6.5 3.5 0.2 0.8 1.3 1.3 0.5 0.2 0.2 0.1
0.0 0.0 0.0 0.0 0.0 0.0 0.0 0.0 0.0 0.0 0.4 0.0 0.0 0.0 0.0 0.0 0.0 0.0 0.0 1.6 1.2 0.3 1.4 0.5 0.1 0.3 0.3 0.1 5.6 0.0 3.7 0.9 1.2 1.4 2.8 1.7 0.9 1.4 0.6 0.2 0.3 0.5 0.3 0.1
0.0 0.0 0.0 0.0 0.0 0.0 0.0 0.0 0.0 0.0 3.8 0.0 0.0 0.0 0.0 0.0 0.0 0.0 1.2 0.0 0.0 1.5 1.5 1.5 1.7 1.9 0.0 1.3 1.2 0.6 2.1 0.0 4.6 4.5 4.0 2.0 1.3 0.8 0.3 0.4 1.7 1.2 0.3 0.7
0.0 0.0 0.0 0.0 0.0 0.0 0.0 0.0 0.0 0.0 0.5 6.8 0.9 0.0 0.0 0.0 0.0 0.0 0.0 0.0 0.0 0.0 0.0 1.3 1.6 1.1 0.0 1.1 0.9 0.2 1.3 1.6 3.5 6.8 3.8 1.5 1.7 2.0 1.3 1.1 0.7 0.5 0.2 0.1
0.0 0.0 0.0 0.0 0.0 0.0 0.0 0.0 0.0 0.0 0.0 4.9 0.9 0.0 0.0 0.0 0.0 0.0 0.0 0.0 0.0 0.0 0.8 2.2 1.0 0.0 0.1 0.1 0.9 2.2 0.7 2.6 6.5 9.2 6.5 4.9 5.6 4.0 3.0 3.3 2.3 1.0 0.8 0.5
0.0 0.0 0.0 0.0 0.0 0.0 0.0 19.4 0.0 0.0 0.0 2.1 4.0 0.0 0.0 0.0 0.0 0.0 0.0 0.0 0.0 0.0 0.8 1.2 0.2 0.0 0.1 2.7 5.0 3.5 3.2 1.7 1.6 3.6 3.7 7.1 7.3 4.4 2.3 2.3 1.0 0.1 0.0 0.0
0.0 0.0 0.0 0.0 0.0 0.0 0.8 3.4 0.0 0.0 0.0 4.8 5.5 0.7 0.0 0.0 0.0 0.0 0.0 0.0 0.0 0.0 0.5 0.7 0.1 0.0 0.0 3.4 2.4 1.2 0.8 0.4 0.2 0.2 0.2 1.2 0.7 0.7 0.0 0.0 0.0 0.0 0.0 0.0
0.0 0.0 0.0 0.0 0.0 0.0 0.1 0.0 0.0 0.0 0.0 0.2 9.3 3.2 1.2 0.0 0.1 0.5 0.0 0.1 0.0 0.0 0.2 0.0 0.2 0.1 0.7 9.8 1.0 0.0 0.0 0.0 0.0 0.0 0.0 0.0 0.0 0.0 0.0 0.0 0.0 0.0 0.0 0.0
0.0 0.0 0.0 0.0 0.0 3.4 0.0 0.0 0.0 0.0 0.0 4.5 4.1 2.4 7.5 0.0 0.1 0.0 0.5 0.0 4.8 0.0 2.5 0.4 0.1 3.9 13.5 8.9 1.8 0.8 0.2 0.0 0.0 0.0 0.0 0.0 0.1 0.1 0.0 0.6 0.6 0.1 0.6 2.1
0.0 0.0 1.7 30.7 1.4 0.0 0.0 1.0 10.3 6.9 0.7 0.0 0.8 0.2 3.3 0.0 0.5 1.2 1.8 0.9 1.8 5.0 0.9 0.0 4.1 8.2 3.1 0.7 0.2 0.7 0.7 1.3 0.5 0.3 0.2 0.8 0.8 0.9 1.5 1.9 2.4 2.8 3.1 3.5
0.0 20.8 13.3 0.0 0.0 0.0 3.1 22.1 20.6 7.0 10.1 0.3 0.2 0.0 0.4 0.0 6.1 1.6 0.3 4.8 1.5 4.5 2.3 3.1 7.9 8.1 4.8 0.5 0.0 0.0 0.1 0.4 0.7 1.0 1.2 1.3 1.1 1.3 1.6 2.7 1.6 2.2 2.4 2.9
0.0 0.0 0.0 0.0 5.2 10.6 11.4 13.2 5.5 4.7 2.8 0.2 0.3 0.1 0.0 0.0 0.5 4.8 2.2 6.2 8.4 11.5 3.2 7.3 9.5 6.0 1.7 0.5 0.4 0.3 0.4 0.1 0.1 0.3 0.4 0.8 1.1 1.3 1.4 2.0 2.4 3.1 3.7 4.7
0.0 2.8 9.0 7.4 15.7 22.1 13.7 11.1 5.0 6.0 2.8 2.1 0.7 1.5 0.2 0.2 5.6 9.1 6.5 8.8 12.4 3.6 12.3 12.7 8.9 4.1 1.6 1.6 0.9 0.9 0.8 0.9 0.8 1.4 1.5 1.5 1.7 2.4 2.9 3.9 6.0 6.1 7.3 10.3
7.1 18.6 21.2 12.5 11.1 8.7 8.1 4.8 3.4 3.5 4.1 3.4 1.2 0.7 1.2 2.3 8.5 18.0 16.1 13.1 4.0 12.2 12.3 8.7 7.3 6.6 5.6 3.7 3.1 2.9 5.1 5.3 5.3 6.1 6.4 7.1 7.4 8.9 9.1 9.3 10.1 8.2 10.2 12.9
10.4 6.0 12.4 9.0 8.4 6.1 5.9 4.2 3.5 3.6 5.3 4.0 2.0 2.7 2.5 6.6 12.7 11.9 9.9 8.9 8.9 6.6 10.4 10.2 9.3 6.9 5.9 5.7 5.5 5.8 6.6 7.3 7.6 8.2 7.7 8.9 9.1 7.1 9.8 10.3 9.3 7.3 8.1 8.6
3.3 6.2 12.5 6.7 5.7 7.1 7.3 6.5 6.7 3.6 6.1 3.8 3.2 5.7 7.2 10.5 9.2 8.8 10.4 5.9 9.8 10.9 8.5 8.5 7.9 8.0 8.5 9.1 9.1 9.6 9.6 8.9 8.4 8.1 7.7 7.5 7.6 6.8 7.5 7.4 6.7 7.0 5.7 6.1
3.8 12.3 12.5 11.7 9.0 12.2 12.5 10.1 8.2 5.1 3.6 5.2 2.3 4.1 7.7 3.9 5.9 8.3 8.5 14.6 14.0 11.4 11.3 10.4 9.9 10.0 10.6 10.2 10.0 10.5 9.2 7.8 7.3 7.0 6.6 6.4 5.9 4.5 3.1 4.4 6.1 4.2 3.4 2.8